EHI
0 0 0 0 0 0 0 0 0 0 0 0 0 0 0 0 0 0 0 0 0 0 0 0 0 0 0 0 0 0 0 0 0 0 0 0 0 0
0 0 0 0 0 0 0 0 0 0 0 0 0 0 0 0 0 0 0 0 0 0 0 0 0 0 0 0 0 0 0 0 0 0 0 0 0 0
0 0 0 0 0 0 0 0 0 0 0 0 0 0 0 0 0 0 0 0 0 0 0 0 0 0 0 0 0 0 0 0 0 0 0 0 0 0
0 0 0 0 0 0 0 0 0 0 0 0 0 0 0 0 0 0 0 0 0 0 0 0 0 0 0 0 0 0 0 0 0 0 0 0 0 0
0 0 0 0 0 0 0 0 0 0 0 0 0 0 0 0 0 0 0 0 0 0 0 0 0 0 0 0 0 0 0 0 0 0 0 0 0 0
0 0 0 0 0 0 0 0 0 0 0 0 0 0 0 0 0 0 0 0 0 0 0 0 0 0 0 0 0 0 0 0 0 0 0 0 0 0
0 0 0 0 0 0 0 0 0 0 0 0 0 0 0 0 0 0 0 0 0 0 0 0 0 0 0 0 0 0 0 0 0 0 0 0 0 0
0 0 0 0 0 0 0 0 0 0 0 0 0 0 0 0 0 0 0 0 0 0 0 0 0 0 0 0 0 0 0 0 0 0 0 0 0 0
0 0 0 0 0 0 0 0 0 0 0 0 0 0 0 0 0 0 0 0 0 0 0 0 0 0 0 0 0 0 0 0 0 0 0 0 0 0
0 0 0 0 0 0 0 0 0 0 0 0 0 0 0 0 0 0 0 0 0 0 0 0 0 0 0 0 0 0 0 0 0 0 0 0 0 0
0 0 0 0 0 0 0 0 0 0 0 0 0 0 0 0 0 0 0 0 0 0 0 0 0 0 0 0 0 0 0 0 0 0 0 0 0 0
0 0 0 0 0 0 0 0 0 0 0 0 0 0 0 0 0 0 0 0 0 0 0 0 0 0 0 0 0 0 0 0 0 0 0 0 0 0
0 0 0 0 0 0 0 0 0 0 0 0 0 0 0 0 0 0 0 0 0 0 0 0 0 0 0 0 0 0 0 0 0 0 0 0 0 0
0 0 0 0 0 0 0 0 0 0 0 0 0 0 0 0 0 0 0 0 0 0 0 0 0 0 0 0 0 0 0 0 0 0 0 0 0 0
0 0 0 0 0 0 0 0 0 0 0 0 0 0 0 0 0 0 0 0 0 0 0 0 0 0 0 0 0 0 0 0 0 0 0 0 0 0
0 0 0 0 0 0 0 0 0 0 0 0 0 0 0 0 0 0 0 0 0 0 0 0 0 0 0 0 0 0 0 0 0 0 0 0 0 0
0 0 0 0 0 0 0 0 0 0 0 0 0 0 0 0 0 0 0 0 0 0 0 0 0 0 0 0 0 0 0 0 0 0 0 0 0 0
0 0 0 0 0 0 0 0 0 0 0 0 0 0 0 0 0 0 0 0 0 0 0 0 0 0 0 0 0 0 0 0 0 0 0 0 0 0
0 0 0 0 0 0 0 0 0 0 0 0 0 0 0 0 0 0 0 0 0 0 0 0 0 0 0 0 0 0 0 0 0 0 0 0 0 0
0 0 0 0 0 0 0 0 0 0 0 0 0 0 0 0 0 0 0 0 0 0 0 0 0 0 0 0 0 0 0 0 0 0 0 0 0 0
0 0 0 0 0 0 0 0 0 0 0 0 0 0 0 0 0 0 0 0 0 0 0 0 0 0 0 0 0 0 0 0 0 0 0 0 0 0
0 0 0 0 0 0 0 0 0 0 0 0 0 0 0 0 0 0 0 0 0 0 0 0 0 0 0 0 0 0 0 0 0 0 0 0 0 0
0 0 0 0 0 0 0 0 0 0 0 0 0 0 0 0 0 0 0 0 0 0 0 0 0 0 0 0 0 0 0 0 0 0 0 0 0 0
Wind_Speed
0 1 1 0 0 0 0 1 3 3 3 3 2 2 2 3 5 4 4 9 10 10 10 10 10 10 10 10 11 10 8 7 6 5 3 1 1 2
0 1 1 0 1 1 0 0 1 2 2 2 2 2 2 3 5 4 4 8 10 10 9 9 9 10 9 9 9 9 9 8 7 6 5 4 3 3
1 2 2 2 1 1 1 1 0 1 2 2 2 2 2 2 2 2 3 3 4 8 8 8 8 8 8 8 8 8 8 8 7 6 6 5 5 4
2 3 2 2 2 2 1 1 1 1 3 3 2 2 2 2 2 2 2 3 2 5 7 7 7 6 7 7 7 7 7 6 6 6 5 5 5 5
3 3 2 3 2 2 2 2 1 2 2 4 3 2 2 1 1 1 2 2 1 2 4 4 4 4 5 5 5 6 6 6 5 5 5 5 5 5
4 4 3 3 2 2 2 2 2 2 3 4 3 2 2 1 2 1 1 1 1 2 2 2 2 3 3 4 4 5 5 5 5 5 4 4 5 5
4 4 4 5 6 4 3 2 2 2 3 3 3 2 2 2 1 1 1 1 1 2 2 2 1 1 1 2 3 3 4 4 5 5 5 5 5 5
4 4 4 5 7 8 9 8 6 3 3 2 2 3 2 2 2 1 1 2 1 2 2 2 1 0 0 1 2 3 4 5 4 4 4 4 5 6
4 3 3 4 5 4 6 9 9 9 6 3 3 3 3 2 3 2 2 1 1 1 2 2 2 1 1 1 2 3 3 4 4 4 4 5 5 6
3 3 4 3 3 3 4 4 4 5 6 5 4 4 4 3 3 2 2 0 1 1 2 1 2 2 2 2 2 1 2 3 4 5 6 6 7 8
3 3 4 3 4 5 4 4 3 2 6 8 8 6 7 6 4 3 2 2 1 1 1 1 2 3 3 2 1 2 3 5 6 7 7 8 8 9
2 2 3 4 5 4 3 3 3 2 2 2 3 3 3 3 4 3 2 2 0 1 1 2 2 3 3 3 2 2 3 6 8 8 9 10 10 4
3 2 2 5 5 4 3 2 3 4 2 2 1 1 2 1 1 2 2 2 2 1 0 2 1 1 1 3 3 2 2 2 3 5 8 11 11 7
3 2 3 6 5 4 3 3 4 3 1 1 1 1 1 1 1 2 2 1 1 2 1 1 1 1 1 2 4 3 3 3 3 3 3 8 9 11
3 5 6 7 5 3 5 5 3 2 1 1 2 2 2 2 2 1 0 1 2 3 3 3 3 3 3 3 4 4 4 4 3 3 3 3 3 4
3 5 6 6 5 4 4 3 2 3 2 2 2 2 2 2 2 2 1 1 2 3 3 4 5 5 4 5 6 7 5 5 4 4 5 5 5 4
4 2 2 2 3 3 3 3 3 3 3 2 2 2 2 2 2 2 2 2 2 2 2 2 4 5 6 5 6 8 7 7 6 6 6 7 5 5
7 3 4 4 5 5 4 4 4 4 4 3 3 3 3 3 3 2 2 3 4 4 4 3 2 2 3 6 11 9 7 7 5 5 5 7 8 5
6 4 5 5 5 5 5 5 5 4 4 4 4 4 3 3 3 4 4 4 5 5 4 3 3 3 5 6 5 8 6 4 4 5 5 6 8 7
5 6 6 5 5 5 5 5 4 4 4 4 4 4 5 4 4 5 5 5 5 5 5 4 5 5 6 5 5 4 6 6 5 7 7 6 8 11
7 7 7 6 6 6 6 5 5 5 5 5 5 6 6 6 6 6 6 9 7 6 6 6 6 8 4 3 6 6 5 9 11 7 6 7 8 8
7 7 7 7 7 6 6 6 6 6 6 6 6 6 6 6 7 8 7 6 6 6 7 5 4 4 4 7 9 9 9 7 10 17 17 14 7 6
8 7 7 7 7 6 6 7 8 7 7 7 7 7 7 7 7 7 7 7 6 7 6 6 5 5 6 7 9 9 11 10 8 8 8 14 19 23
Wind_Direction
247 238 210 186 4 271 209 186 189 205 199 142 118 55 58 69 47 60 56 54 54 56 56 54 54 54 54 54 53 51 51 56 58 56 53 39 260 266
93 111 100 85 69 39 49 216 197 190 169 119 113 109 75 84 70 66 65 64 55 57 57 59 60 59 57 55 54 51 50 52 53 51 44 35 32 28
87 102 94 78 80 50 54 79 87 135 149 117 103 109 96 82 72 65 69 66 57 56 61 61 60 58 56 54 52 50 47 44 41 37 31 30 25 4
100 100 94 83 73 53 66 78 80 91 133 138 124 122 105 106 97 84 77 80 75 59 58 57 57 54 51 49 46 43 40 36 33 28 19 10 359 348
93 102 100 101 91 72 72 73 65 66 93 122 123 118 111 118 105 79 78 57 72 71 57 50 46 40 39 41 40 34 29 21 14 6 359 354 345 334
77 81 80 89 103 102 90 85 90 87 94 106 111 114 119 130 97 84 65 27 27 41 26 20 23 26 37 46 43 28 13 2 351 342 334 328 323 318
86 77 76 82 82 85 87 74 87 101 108 112 120 117 118 105 110 83 75 350 30 31 4 333 360 8 9 39 42 15 357 345 336 330 325 321 316 308
109 98 93 83 85 84 81 74 76 97 120 125 131 136 137 123 104 87 75 64 343 344 21 321 351 15 271 127 24 1 349 344 333 325 321 318 316 311
124 119 108 98 85 84 84 77 65 63 72 117 125 137 132 129 114 88 76 88 220 263 42 324 335 351 317 6 1 341 339 337 336 338 333 324 315 308
127 128 123 117 116 109 96 86 71 55 57 64 94 95 99 99 107 130 149 27 305 324 93 331 330 332 328 318 278 296 324 327 326 322 318 314 311 307
117 118 126 131 139 129 117 114 101 87 80 86 91 95 95 92 89 82 71 62 12 340 35 56 339 336 324 313 290 309 316 315 313 311 309 307 305 305
134 125 137 151 157 147 138 143 143 150 126 106 90 92 94 96 90 103 124 126 130 309 10 51 16 8 333 313 324 327 325 313 311 310 309 308 305 303
165 172 181 175 173 173 157 154 158 144 144 148 147 142 128 121 105 95 108 138 166 225 35 71 36 360 301 304 309 303 307 308 314 309 309 306 300 293
174 175 181 183 186 188 180 175 157 134 124 145 149 159 156 149 128 105 93 100 181 224 242 148 198 215 281 291 288 304 311 298 297 294 292 304 304 301
179 184 184 191 196 203 209 204 180 157 168 182 195 200 177 155 135 120 168 250 262 254 237 211 208 227 227 249 275 293 310 299 291 290 295 294 285 288
186 196 198 203 205 217 223 214 185 190 189 196 203 191 162 154 175 188 210 249 283 282 248 215 207 215 238 249 260 272 272 279 295 297 291 284 274 264
169 165 178 190 204 212 211 206 200 204 212 196 196 194 191 189 203 200 204 216 239 273 284 245 220 219 232 244 260 261 265 266 267 277 282 284 274 260
192 191 202 207 211 212 211 210 206 205 202 197 199 200 202 206 215 215 216 226 244 255 262 262 255 264 263 254 235 250 257 261 265 265 266 282 287 270
209 206 212 214 214 212 210 209 211 206 195 195 200 203 205 210 217 225 228 235 244 250 253 248 238 238 263 280 274 228 228 251 267 272 267 268 280 282
211 214 218 218 215 213 212 211 210 203 199 202 203 207 208 212 220 227 228 233 242 248 252 243 232 230 240 257 270 270 235 249 263 272 277 274 273 280
216 218 218 217 216 214 213 211 209 209 206 203 209 211 212 214 223 227 230 241 241 243 248 248 241 248 245 248 264 266 251 248 255 259 269 279 286 283
219 220 219 217 215 214 212 211 213 214 212 213 213 213 213 215 224 227 229 233 236 239 248 253 243 240 229 244 261 273 281 275 268 270 266 259 262 267
222 221 220 217 215 212 211 213 215 219 217 216 217 215 214 218 222 225 228 231 237 242 248 255 249 239 243 248 260 269 276 281 282 279 268 264 264 264